{"data":{"norad_id":50182,"intl_designator":"2021-125AC","name":"STARLINK-3277","alt_names":[],"object_type":"PAYLOAD","status":"ACTIVE","operator":null,"country":"US","launch_date":"2021-12-18","launch_site_code":"AFWTR","launch_vehicle":null,"mission":null,"orbit_class":"UNKNOWN","rcs_meters":null,"size_class":null,"mass_kg":null,"dimensions":null,"purposes":["comms"],"wikipedia_slug":null,"has_3d_model":false,"image_url":null,"decayed_at":null,"tle_current":{"epoch":"2026-09-19T21:59:35.008224Z","epoch_age_seconds":95730,"freshness":"FRESH","line1":"1 50182U 21125AC  26262.91637741  .00000111  00000+0  15343-4 0  9995","line2":"2 50182  53.1610  81.5320 0001274  80.6333 279.4812 15.31702871266170","mean_motion":15.31702871,"eccentricity":0.0001274,"inclination_deg":53.161,"raan_deg":81.532,"arg_perigee_deg":80.6333,"mean_anomaly_deg":279.4812,"bstar":1.5343e-5,"rev_number":26617,"period_min":94.013011744234,"perigee_km":469.85889109854,"apogee_km":471.60398277628,"semimajor_km":6848.8684369374,"source":"CELESTRAK","updated_at":"2026-09-20T09:00:39.417150Z"}}}